Weather History for KBML - January, 2005

Change the Weather History Date:

Friday, January 14, 2005

  Actual Average Record
Temperature  
Mean Temperature 36 °F -  
Max Temperature 55 °F 20 °F 55 °F (2005)
Min Temperature 17 °F 0 °F -35 °F (1999)
Degree Days  
Heating Degree Days 28    
Moisture  
Dew Point 31 °F    
Average Humidity 85    
Maximum Humidity 100    
Minimum Humidity 62    
Precipitation  
Precipitation 0.39 in - - ()
Sea Level Pressure  
Sea Level Pressure 29.98 in    
Wind  
Wind Speed 8 mph (West)    
Max Wind Speed 15 mph    
Max Gust Speed 33 mph    
Visibility 6 miles    
Events Rain , Snow    
Averages and records for this station are not official NWS values.
T = Trace of Precipitation, MM = Missing Value Source: NWS Daily Summary

Daily Weather History Graph

Daily Weather History Graph

Search for Another Location

Airport or City:

Trip Planner

Search our weather history database for the weather conditions in past years. The results will help you decide how hot, cold, wet, or windy it might be!

Date:

Astronomy

Jan. 14, 2005 Rise Set
Actual Time 7:18 AM EST 4:29 PM EST
Civil Twilight 6:45 AM EST 5:02 PM EST
Nautical Twilight 6:09 AM EST 5:38 PM EST
Astronomical Twilight 5:34 AM EST 6:13 PM EST
Moon 10:07 AM EST (1/14) 9:52 PM EST (1/14)
Length of Visible Light 10h 16m
Length of Day
9h 11m
Waxing Crescent, 23% of the Moon is Illuminated
Jan 14
Waxing Crescent
Jan 17
First Quarter
Jan 25
Full
Feb 2
Last Quarter
Feb 8
New

Hourly Weather History & Observations

Time (EST) Temp. Windchill Dew Point Humidity Pressure Visibility Wind Dir Wind Speed Gust Speed Precip Events Conditions
12:52 AM 46.9 °F - 43.0 °F 86% 29.77 in 10.0 mi ESE 4.6 mph - N/A   Mostly Cloudy
1:52 AM 46.9 °F - 43.0 °F 86% 29.77 in 10.0 mi SE 5.8 mph - N/A   Overcast
2:52 AM 55.0 °F - 50.0 °F 83% 29.73 in 7.0 mi SSE 8.1 mph - 0.01 in Rain Light Rain
3:52 AM 55.0 °F - 52.0 °F 89% 29.67 in 10.0 mi SSE 11.5 mph - 0.05 in Rain Light Rain
4:52 AM 55.0 °F - 52.0 °F 89% 29.64 in 10.0 mi SSE 9.2 mph 16.1 mph 0.01 in Rain Light Rain
5:52 AM 54.0 °F - 52.0 °F 93% 29.61 in 10.0 mi SSE 11.5 mph 19.6 mph 0.03 in Rain Light Rain
6:29 AM 51.8 °F - 50.0 °F 94% 29.64 in 1.8 mi West 12.7 mph 33.4 mph 0.08 in Rain Heavy Rain
6:52 AM 48.0 °F - 44.1 °F 86% 29.74 in 10.0 mi WNW 15.0 mph 23.0 mph 0.12 in Rain Light Rain
7:52 AM 39.9 °F 32.9 °F 37.0 °F 89% 29.85 in 10.0 mi WSW 11.5 mph 17.3 mph 0.04 in Rain Light Rain
8:24 AM 37.4 °F 32.1 °F 35.6 °F 93% 29.84 in 6.0 mi Variable 6.9 mph - 0.00 in Rain Light Rain
9:15 AM 33.8 °F 28.6 °F 33.8 °F 100% 29.92 in 1.8 mi WNW 5.8 mph - 0.02 in Snow Light Snow
9:25 AM 33.8 °F 27.7 °F 32.0 °F 93% 29.93 in 1.2 mi WNW 6.9 mph - 0.04 in Snow Light Snow
9:52 AM 33.1 °F 30.0 °F 32.0 °F 96% 29.96 in 0.8 mi Variable 3.5 mph - 0.06 in Snow Light Snow
10:08 AM 33.8 °F 29.6 °F 32.0 °F 93% 29.95 in 1.0 mi Variable 4.6 mph - 0.02 in Snow Light Snow
10:32 AM 33.8 °F 26.4 °F 32.0 °F 93% 29.96 in 1.0 mi West 9.2 mph - 0.03 in Snow Light Snow
10:42 AM 33.8 °F 26.4 °F 32.0 °F 93% 29.96 in 0.8 mi West 9.2 mph - 0.04 in Snow Light Snow
10:52 AM 33.1 °F 26.9 °F 32.0 °F 96% 29.99 in 0.8 mi West 6.9 mph - 0.04 in Snow Light Snow
11:00 AM 33.8 °F 26.4 °F 32.0 °F 93% 29.96 in 1.2 mi West 9.2 mph - 0.01 in Snow Light Snow
11:09 AM 33.8 °F 25.8 °F 32.0 °F 93% 29.98 in 1.5 mi West 10.4 mph 16.1 mph 0.01 in Snow Light Snow
11:17 AM 33.8 °F 27.7 °F 32.0 °F 93% 29.99 in 1.2 mi West 6.9 mph - 0.01 in Snow Light Snow
11:30 AM 33.8 °F 27.7 °F 32.0 °F 93% 29.98 in 0.8 mi West 6.9 mph - 0.02 in Snow Light Snow
11:37 AM 33.8 °F 27.0 °F 32.0 °F 93% 29.97 in 0.8 mi West 8.1 mph - 0.02 in Snow Light Snow
11:52 AM 33.1 °F 26.9 °F 30.9 °F 92% 29.99 in 0.8 mi WNW 6.9 mph - 0.03 in Snow Light Snow
12:15 PM 33.8 °F 27.7 °F 30.2 °F 87% 29.96 in 1.8 mi Variable 6.9 mph - 0.00 in Snow Light Snow
12:22 PM 33.8 °F 25.8 °F 30.2 °F 87% 29.96 in 2.5 mi WNW 10.4 mph - 0.00 in Snow Light Snow
12:27 PM 33.8 °F 27.7 °F 30.2 °F 87% 29.96 in 3.0 mi Variable 6.9 mph - 0.00 in Snow Light Snow
12:52 PM 33.1 °F 23.9 °F 30.0 °F 89% 30.00 in 8.0 mi WNW 12.7 mph 19.6 mph 0.00 in   Mostly Cloudy
1:04 PM 33.8 °F 27.0 °F 30.2 °F 87% 29.97 in 1.8 mi WNW 8.1 mph - 0.00 in Snow Light Snow
1:19 PM 33.8 °F 27.7 °F 30.2 °F 87% 29.98 in 2.5 mi Variable 6.9 mph - 0.00 in Snow Light Snow
1:31 PM 33.8 °F 27.0 °F 30.2 °F 87% 29.98 in 3.0 mi West 8.1 mph 18.4 mph 0.00 in Snow Light Snow
1:52 PM 33.1 °F 25.5 °F 28.9 °F 85% 30.01 in 8.0 mi WNW 9.2 mph - 0.00 in   Overcast
2:52 PM 33.1 °F 26.1 °F 28.0 °F 82% 30.04 in 10.0 mi WNW 8.1 mph 19.6 mph N/A   Scattered Clouds
3:26 PM 32.0 °F 23.6 °F 26.6 °F 80% 30.03 in 10.0 mi WNW 10.4 mph 19.6 mph N/A   Mostly Cloudy
3:39 PM 32.0 °F 24.8 °F 24.8 °F 75% 30.04 in 10.0 mi NW 8.1 mph - N/A   Scattered Clouds
3:52 PM 32.0 °F 24.8 °F 24.1 °F 73% 30.08 in 10.0 mi NW 8.1 mph - N/A   Partly Cloudy
4:52 PM 28.9 °F 21.1 °F 18.0 °F 64% 30.15 in 10.0 mi NW 8.1 mph 18.4 mph N/A   Clear
5:52 PM 26.1 °F 15.0 °F 17.1 °F 69% 30.19 in 10.0 mi NW 12.7 mph 24.2 mph N/A   Clear
6:52 PM 25.0 °F 12.6 °F 16.0 °F 69% 30.24 in 10.0 mi WNW 15.0 mph 20.7 mph N/A   Clear
7:52 PM 23.0 °F 11.1 °F 17.1 °F 78% 30.28 in 8.0 mi West 12.7 mph 21.9 mph 0.00 in Snow Light Snow
8:52 PM 21.0 °F 9.9 °F 12.0 °F 68% 30.35 in 10.0 mi NW 10.4 mph 18.4 mph 0.00 in   Overcast
9:52 PM 19.9 °F 6.7 °F 9.0 °F 62% 30.38 in 10.0 mi WNW 13.8 mph 21.9 mph 0.00 in   Overcast
10:52 PM 18.0 °F 6.1 °F 9.0 °F 68% 30.43 in 10.0 mi West 10.4 mph - N/A   Overcast
11:52 PM 17.1 °F 6.6 °F 8.1 °F 68% 30.44 in 10.0 mi West 8.1 mph - N/A   Overcast